User: anonymous   Login
Location: Unspecified
(0.0000°N, 0.0000°E)
Time: 01:33:59
(UTC+00:00)
Language:

USA 72 - Orbit

View from above orbital plane
View from above orbital plane
View from above satellite
View from above satellite

Ground track
Ground track

The orbit data is extracted from the following two-line orbital elements,

1 21775U 91076A   21132.88647921 0.00000000  00000-0  00000-0 0    02
2 21775  63.3494 256.6406 3357954 270.9192  51.4926  5.53394512    02
Epoch (UTC): 12 May 2021 21:16:31
Eccentricity: 0.3357954
inclination: 63.3494°
perigee height: 2589 km
apogee height: 11657 km
right ascension of ascending node: 256.6406°
argument of perigee: 270.9192°
revolutions per day: 5.53394512
mean anomaly at epoch: 51.4926°
orbit number at epoch: 0

The dashed part of the orbit path shows where the satellite is in the earth's shadow,  

DLR